This is the latest recevied weather packets stored in our database for station/object KB2EAR-13. If no packets are shown the sender has not sent any weather packets the latest 10 day(s).
| Time | Temp. | Humidity | Pressure | Rain* | Wind** | Luminosity | Snow |
|---|---|---|---|---|---|---|---|
| 1777535716 | 8.33° C | 94% | 1008.3 hPa | 0 mm | - | - | - |
| 1777535453 | 8.33° C | 94% | 1008.3 hPa | 0 mm | - | - | - |
| 1777535416 | 8.33° C | 94% | 1008.3 hPa | 0 mm | - | - | - |
| 1777535116 | 8.33° C | 94% | 1008.5 hPa | 0.25 mm | - | - | - |
| 1777534816 | 8.33° C | 94% | 1008.5 hPa | 0.25 mm | - | - | - |
| 1777534516 | 8.33° C | 95% | 1008.4 hPa | 0.25 mm | - | - | - |
| 1777534216 | 8.33° C | 94% | 1008.5 hPa | 0.25 mm | - | - | - |
| 1777533916 | 8.33° C | 94% | 1008.5 hPa | 0.25 mm | - | - | - |
| 1777533616 | 8.33° C | 94% | 1008.5 hPa | 0.25 mm | - | - | - |
| 1777533316 | 8.89° C | 94% | 1008.7 hPa | 0.25 mm | - | - | - |
| 1777533016 | 8.89° C | 94% | 1008.7 hPa | 0.25 mm | - | - | - |
| 1777532716 | 8.89° C | 94% | 1008.6 hPa | 0.25 mm | - | - | - |
| 1777532416 | 8.89° C | 94% | 1008.8 hPa | 0.25 mm | - | - | - |
| 1777532116 | 8.89° C | 94% | 1008.8 hPa | 0.25 mm | - | - | - |
| 1777531816 | 8.89° C | 94% | 1009 hPa | 0.25 mm | - | - | - |
| 1777531516 | 8.89° C | 94% | 1008.8 hPa | 0.25 mm | - | - | - |
| 1777531216 | 8.89° C | 94% | 1009.1 hPa | 0.25 mm | - | - | - |
| 1777530916 | 8.89° C | 94% | 1009.1 hPa | 0.25 mm | - | - | - |
| 1777530616 | 8.89° C | 94% | 1009.2 hPa | 0.25 mm | - | - | - |
| 1777530316 | 8.89° C | 94% | 1009.2 hPa | 0.51 mm | - | - | - |
| 1777530016 | 8.89° C | 94% | 1009.3 hPa | 1.27 mm | - | - | - |
| 1777529716 | 8.89° C | 94% | 1009.3 hPa | 2.29 mm | - | - | - |
| 1777529416 | 8.89° C | 94% | 1009.3 hPa | 2.79 mm | - | - | - |
| 1777529116 | 8.89° C | 94% | 1009.5 hPa | 3.05 mm | - | - | - |
| 1777528816 | 8.89° C | 94% | 1009.5 hPa | 3.05 mm | - | - | - |
* Rain latest hour (hover to see other rain measurements)
** Current wind speed in m/s (hover to see current wind gust speed)